Flag for Canada Weather past 2 weeks in Oshawa, Ontario, Canada

Now
41 °F

Partly sunny.


Feels Like: 33 °F
Forecast: N/A
Wind: 15 mph from Northwest

Location: Toronto Buttonville

Current Time: Mar 30, 2015 at 7:13:42 PM

Latest Report: Mar 30, 2015 at 6:00 PM


Visibility: 15 mi

Pressure: 29.81 "Hg

Humidity: 49%

Dew point: 23 °F

Location of OshawaLocation

Historic Weather in Oshawa — Graph

°F

Oshawa temperature yesterday

Maximum temperature yesterday: 41 °F (at 3:00 PM)
Minimum temperature yesterday: 14 °F (at 7:00 AM)
Average temperature yesterday: 29 °F

Past Weeks' High & Low Weather Summary

 TemperatureHumidityPressure
High50 °F (Mar 16, 4:00 PM)100% (Mar 17, 12:00 AM)30.43 "Hg (Mar 17, 12:00 AM)
Low10 °F (Mar 23, 7:00 AM)25% (Mar 19, 2:00 PM)29.56 "Hg (Mar 30, 5:00 AM)
Average30 °F63%30.09 "Hg
* Reported Mar 15 6:00 PM — Mar 30 6:00 PM, Oshawa, Weather by CustomWeather, © 2015

Note: Actual official high and low records may vary slightly from our data, if they occured in-between our weather recording intervals... More about our weather records

Advertising

Oshawa weather history for previous 24 hours

 ConditionsComfort  
Time TempWeatherWind HumidityBarometerVisibility
6:00 PM
Mon, Mar 30
41 °FPartly sunny.15 mph49%29.81 "Hg15 mi
5:00 PM43 °FPartly sunny.17 mph46%29.79 "Hg15 mi
4:00 PM43 °FPartly sunny.16 mph57%29.78 "Hg15 mi
3:00 PM43 °FPartly sunny.13 mph66%29.77 "Hg15 mi
2:51 PMN/ASprinkles.10 mphN/AN/A15 mi
2:00 PM43 °FMostly cloudy.13 mph61%29.77 "Hg15 mi
1:00 PM45 °FPartly sunny.13 mph46%29.75 "Hg15 mi
12:00 PM43 °FPartly sunny.18 mph53%29.74 "Hg15 mi
11:00 AM41 °FPartly sunny.16 mph61%29.72 "Hg15 mi
10:00 AM37 °FOvercast.15 mph70%29.70 "Hg15 mi
9:00 AM37 °FOvercast.10 mph70%29.68 "Hg15 mi
8:00 AM37 °FOvercast.14 mph70%29.64 "Hg15 mi
7:00 AM37 °FOvercast.14 mph70%29.61 "Hg15 mi
6:00 AM37 °FOvercast.14 mph81%29.59 "Hg15 mi
5:00 AM37 °FLight rain. Overcast.12 mph87%29.56 "Hg10 mi
4:00 AM37 °FOvercast.13 mph93%29.57 "Hg10 mi
3:00 AM36 °FLight snow. Overcast.12 mph93%29.60 "Hg10 mi
2:00 AM36 °FLight snow. Overcast.10 mph81%29.65 "Hg10 mi
1:00 AM36 °FOvercast.13 mph70%29.70 "Hg15 mi
12:00 AM36 °FOvercast.12 mph75%29.76 "Hg15 mi
11:00 PM
Sun, Mar 29
36 °FMostly cloudy.13 mph81%29.81 "Hg15 mi
10:00 PM34 °FLight snow. Overcast.14 mph81%29.88 "Hg7 mi
9:00 PM37 °FOvercast.13 mph45%29.88 "Hg15 mi
8:00 PM37 °FOvercast.10 mph45%29.88 "Hg15 mi
7:00 PM37 °FOvercast.9 mph45%29.92 "Hg15 mi
Weather by CustomWeather, © 2015

See weather overviewHow to use our weather pages